Regional Weather Roundup
Issued by NWS Goodland, KS

Home | Current Version | Previous Version | Text Only | Print | Product List | Glossary Off
Versions: 1 2 3 4 5 6 7 8 9 10 11 12 13 14 15 16 17 18 19 20 21 22 23 24 25 26 27 28 29 30 31 32 33 34 35 36 37 38 39 40 41 42 43 44 45 46 47 48 49 50

000
ASUS43 KGLD 272208
RWRGLD

GOODLAND FORECAST AREA HOURLY WEATHER ROUNDUP
NATIONAL WEATHER SERVICE GOODLAND KS
400 PM MDT WED MAY 27 2015

...OFFICIAL OBSERVATIONS...

CITY           SKY/WX    TMP DP  RH WIND       PRES   REMARKS
GOODLAND KS    PTSUNNY   69  60  73 SE20G32   29.99S
HILL CITY KS   CLOUDY    71  58  63 SE13      30.04S
IMPERIAL NEB   CLOUDY    68  57  68 SE22G29   29.97F
MCCOOK NEB     MOSUNNY   74  55  51 SE14      30.01F
AKRON CO       MOSUNNY   75  48  38 S16       30.00F
BURLINGTON CO  MOSUNNY   80  47  31 S16G28    30.00S
LIMON CO       LGT RAIN  56  49  77 E9        30.11R
$$

...UNOFFICIAL OBSERVATIONS...

CITY           SKY/WX    TMP DP  RH WIND       PRES   REMARKS
COLBY KS       LGT RAIN  66  64  94 SE16      30.02S
GOVE KS          N/A     67  32  27 MISG        N/A
NORTON KS      MOSUNNY   75  54  46 SE16G23   30.03R
SHARON SPRINGS   N/A     74  64  70 MISG        N/A
KIT CARSON CO    N/A     79  49  34 MISG        N/A
$$



USA.gov is the U.S. government's official web portal to all federal, state and local government web resources and services.